Regional Weather Roundup
Issued by NWS Pendleton, OR

Home | Current Version | Previous Version | Text Only | Print | Product List | Glossary On
Versions: 1 2 3 4 5 6 7 8 9 10 11 12 13 14 15 16 17 18 19 20 21 22 23 24 25 26 27 28 29 30 31 32 33 34 35 36 37 38 39 40 41 42 43 44 45 46 47 48 49 50
888
ASUS46 KPDT 241410
RWRPDT
PENDLETON REGIONAL WEATHER ROUNDUP
NATIONAL WEATHER SERVICE PENDLETON OREGON
700 AM PDT FRI MAR 24 2017

NOTE: FAIR INDICATES FEW OR NO CLOUDS BELOW 12,000 FEET WITH NO
SIGNIFICANT WEATHER AND/OR OBSTRUCTIONS TO VISIBILITY.

# INDICATES UNOFFICIAL STATION AND DATA

WAZ520-241510-
EAST SLOPES OF WASHINGTON CASCADES

CITY            SKY/WX      TMP DP  RH  WIND    PRES   REMARKS
#CLE ELUM HS    N/A         38  35  89  CALM    29.81S
#CLE ELUM LAKE  N/A         N/A N/A N/A S14     29.83S
#GLENWOOD       N/A         37  36  96  CALM    29.85F
#NELSON 3SW     N/A         32  31  96  CALM    30.07F
#NILE           N/A         35  34  96  CALM    29.13S
#TEANAWAY 4NE   N/A         36  36  100 CALM    N/A
#TROUT LAKE 1NE N/A         35  34  96  CALM    29.88S
#TROUT LAKE 1E  N/A         33  32  96  CALM    29.86F
$$

WAZ521-241510-
SIMCOE HIGHLANDS

CITY            SKY/WX      TMP DP  RH  WIND    PRES   REMARKS
#BICKLETON HS   N/A         39  39  100 S12     29.88S WCI 32
#CENTERVILLE 1SWN/A         41  37  86  E2      29.81F
#GOLDENDALE 1NE N/A         43  39  86  N3      N/A
#GOLDENDALE 4W  N/A         42  39  89  E7      29.85F
#GOODNOE HILLS  N/A         42  40  93  E2      29.75F
#LYLE 6NE       N/A         40  39  96  NE1     29.82F
#PITT 4SE       N/A         39  38  96  E5      29.87F
$$

WAZ026-241510-
KITTITAS VALLEY

CITY            SKY/WX      TMP DP  RH  WIND    PRES   REMARKS
ELLENSBURG AP   LGT RAIN    41  38  89  CALM    29.85S FOG
#ELLENSBURG CWU N/A         39  37  92  CALM    29.80F
#ELLENSBURG 3NE N/A         39  37  92  CALM    27.94S
#ELLENSBURG 1E  N/A         38  N/A N/A CALM    N/A
#ELLENSBURG 13S N/A         41  38  89  CALM    N/A
#KITTITAS 4N    N/A         39  34  82  CALM    29.87S
#KITTITAS 3S    N/A         39  37  92  CALM    29.85F
#THORP 6N       N/A         36  35  96  SE6     29.88S
$$

WAZ027-241510-
YAKIMA VALLEY

CITY            SKY/WX      TMP DP  RH  WIND    PRES   REMARKS
SUNNYSIDE AP    RAIN        42  41  96  CALM    29.89R
YAKIMA AIRPORT  LGT RAIN    44  42  93  W3      29.87R
YAKIMA-VAGABOND LGT RAIN    40  38  92  CALM    29.83F
#GRANDVIEW      N/A         43  40  89  CALM    29.90S
#MABTON         N/A         44  42  93  CALM    29.87S
#MOXEE 2E       N/A         42   0  17  S5      29.84S
#NACHES 2SW     N/A         40  38  92  CALM    29.87S
#TERRACE HTS    N/A         41  40  96  CALM    29.84S
#TOPPENISH      N/A         44  42  93  CALM    29.80S
#WEST VALLEY    N/A         42  40  93  CALM    29.86S
#W YAKIMA       N/A         41  39  93  CALM    29.88S
#WHITE SWAN 5E  N/A         43  41  93  CALM    29.88S
#WILEY CITY 3W  N/A         40  36  85  CALM    29.83S
$$

WAZ028-241510-
LOWER COLUMBIA BASIN...WASHINGTON

CITY            SKY/WX      TMP DP  RH  WIND    PRES   REMARKS
HANFORD         LGT RAIN    42  39  89  SE3     29.87
PASCO           LGT RAIN    44  41  89  E5      29.90S
PROSSER AWOS    N/A         45  41  86  E5      29.91S
RICHLAND AWOS   MXD PCPN    45  44  96  CALM    29.90F
#BENTON CITY    N/A         42  40  93  CALM    29.81F
#CONNELL 5N     N/A         40  38  92  CALM    29.90S
#CONNELL 5NW    N/A         41  39  93  E1      29.84F
#ELTOPIA 6NW    N/A         41  39  93  CALM    28.85F
#KAHLOTUS       N/A         42  38  86  CALM    29.89F
#KENNEWICK 3S   N/A         43  39  86  CALM    29.90S
#PATERSON       N/A         44  42  93  CALM    29.88S
#SAGEMOOR 2W    N/A         41  38  89  CALM    29.76F
#TOUCHET 2S     N/A         44  40  86  CALM    29.88S
#WEST PASCO     N/A         44  39  82  CALM    29.87F
$$

WAZ029-241510-
FOOTHILLS OF THE BLUES...WASHINGTON

CITY            SKY/WX      TMP DP  RH  WIND    PRES   REMARKS
WALLA WALLA AP  LGT RAIN    49  41  74  SE5     29.87F
#CLYDE 6NW      N/A         42  38  86  CALM    29.89F
#DAYTON SCHOOL  N/A         44  31  60  CALM    29.91F
#LOWDEN 2SE     N/A         44  41  89  CALM    29.85F
#PLEASANT VIEW 1N/A         42  37  82  CALM    29.93F
#PRESCOTT       N/A         43  41  93  CALM    29.88F
#WHITMAN COLLEGEN/A         48  41  77  CALM    29.93F
#WAITSBURG 5S   N/A         44  39  82  CALM    29.98F
#WAITSBURG 8N   N/A         43  N/A N/A CALM    29.82S
#WALLA WALLA 5E N/A         49  41  74  S5      N/A
#WHITMAN MISSIONN/A         44  41  89  CALM    29.91R
$$

WAZ030-241510-
BLUE MOUNTAINS...WASHINGTON

CITY            SKY/WX      TMP DP  RH  WIND    PRES   REMARKS
#DIXIE 5SE      N/A         46  35  65  S12     29.79S WCI 40
$$

ORZ009-041-WAZ024-241510-
COLUMBIA RIVER GORGE

CITY            SKY/WX      TMP DP  RH  WIND    PRES   REMARKS
HOOD RIVER AP   LGT RAIN    41  41  100 CALM    29.87S
THE DALLES AP   LGT RAIN    45  44  96  N5      29.86F
#ARLINGTON AIRPON/A         42  41  96  NE5     29.88F
#ARLINGTON HS   N/A         45  42  89  E8      29.80S
#CELILO DOT     N/A         46  43  89  NE6     N/A
#LYLE           N/A         44  42  93  CALM    29.88S
#MOSIER 1S      N/A         42  37  82  CALM    29.85S
#MURDOCK        N/A         44  42  93  N2      29.83F
#RUFUS DOT      N/A         46  46  100 SE3     N/A
#SMITHVILLE     N/A         45  44  96  N1      29.81F

$$

ORZ510-241510-
NORTH CENTRAL OREGON

CITY            SKY/WX      TMP DP  RH  WIND    PRES   REMARKS
#ANTELOPE       N/A         42  38  86  CALM    29.71F
#CHENOWITH 1W   N/A         40  40  100 E9      N/A
#COW CYN RST AREN/A         41  40  96  S8      N/A
#DUFUR          N/A         41  40  96  CALM    29.81F
#DUFUR 9E       N/A         42  41  96  SE6     29.89F
#GRASS VALLEY 1SN/A         43  42  96  SE5     29.96F
#KENT DOT       N/A         42  37  82  N12     N/A    WCI 35
#MAUPIN SCHOOL  N/A         44  42  93  CALM    29.87F
#MORO SCHOOL    N/A         41  41  100 CALM    29.91F
#SHANIKO 4NW    N/A         39  37  92  S21     29.79F WCI 29
#TYGH VALLEY 2NEN/A         43  41  93  CALM    29.83F
#WAPANITIA AIRPON/A         41  40  96  CALM    29.85F
#WASCO 5NE      N/A         41  39  93  CALM    29.86F
$$

ORZ511-241510-
CENTRAL OREGON

CITY            SKY/WX      TMP DP  RH  WIND    PRES   REMARKS
BEND AIRPORT    CLOUDY      43  34  70  S5      29.82F
MADRAS AIRPORT  CLOUDY      43  37  79  S17     29.82F WCI 35
PRINEVILLE AP   CLOUDY      45  34  65  SE14    29.83S WCI 39
REDMOND AIRPORT CLOUDY      44  32  62  S12     29.82F WCI 38
#ASHWOOD SCHOOL N/A         44  38  79  S8      29.78F
#BEND 1SW       N/A         38  36  92  SW2     N/A
#BEND-AWBREY    N/A         38  36  92  SW6     29.81F
#BEND-KIM LN    N/A         42  36  79  S10     29.74F
#CULVER         N/A         45  35  68  SE9     29.74F
#CULVER 8W      N/A         44  38  79  S2      29.83S
#LAKE BILLY CHINN/A         44  N/A N/A W3      29.91S
#POWELL BUTTE   N/A         43  33  67  S14     29.79S WCI 36
#PRINEVILLE     N/A         43  35  73  E7      29.92F
#PRINEVILLE 3N  N/A         44  36  73  SE8     29.82F
#WARM SPRINGS   N/A         44  42  93  CALM    29.79F

$$


ORZ509-241510-
EAST SLOPES OF OREGON CASCADES

CITY            SKY/WX      TMP DP  RH  WIND    PRES   REMARKS
SISTERS AWOS    N/A         39  37  92  CALM    29.78F
#BLUE BOX PASS  N/A         34  N/A N/A S8      N/A
#CAMP SHERMAN   N/A         38  36  92  CALM    29.87R
#LA PINE 4SW    N/A         39  32  76  E5      29.88R
#LA PINE 4NW    N/A         35  31  85  CALM    29.90F
#LAVA BUTTE DOT N/A         35  33  92  S2      N/A
#SISTERS 3N     N/A         39  35  85  CALM    29.85S
#SUNRIVER       N/A         37  35  92  S2      29.86S
#TUMALO 3W      N/A         38  34  85  SE7     29.71S
#WANOGA BUTTE D N/A         30  30  100 W10     N/A

$$

ORZ044-241510-
LOWER COLUMBIA BASIN...OREGON

CITY            SKY/WX      TMP DP  RH  WIND    PRES   REMARKS
HERMISTON       LGT RAIN    44  44  100 N3      29.88S FOG
#BOARDMAN SCHOOLN/A         45  43  93  CALM    29.89S
#BOARDMAN 8SW   N/A         44  42  93  W2      29.87F
#ECHO 8SW       N/A         44  44  100 CALM    29.89S
#I-84 EX 198 DOTN/A         47  43  86  N14     N/A    WCI 41
#IONE SCHOOL    N/A         43  30  60  CALM    29.88S
#UMATILLA       N/A         45  41  86  CALM    29.83S
$$

ORZ507-241510-
NORTHERN FOOTHILLS OF THE BLUES

CITY            SKY/WX      TMP DP  RH  WIND    PRES   REMARKS
PENDLETON AIRPT LGT RAIN    45  43  93  S3      29.87S
#ADAMS 3WNW     N/A         45  41  86  SE1     29.88S
#ATHENA         N/A         46  39  76  S2      29.91S
#HELIX SCHOOL   N/A         44  41  89  N8      29.88S
#HELIX 3N       N/A         44  40  86  S14     29.84F WCI 37
#HOLDMAN 5SE    N/A         44  42  93  CALM    29.86F
#HOLDMAN 6E     N/A         44  41  89  SE3     29.69S
#M-F FERNDALE   N/A         48  41  77  CALM    29.86F
#M-F GROVE ELEM N/A         52  37  56  SE2     29.85S
#M-FREEWATER 5SEN/A         51  39  63  CALM    29.87F
#PENDLETON DNTN N/A         45  39  79  CALM    29.86F
#PDT AQUATIC CTRN/A         44  41  89  CALM    29.78R
#PDT SUNRIDGE   N/A         44  42  93  CALM    29.89S
#PILOT ROCK 1S  N/A         48  36  63  SE6     29.86F
#PILOT ROCK     N/A         46  40  79  N1      29.87F
#TUTUILLA       N/A         47  42  83  S2      29.89S
#UMAPINE 2E     N/A         46  41  83  W2      29.85F
#WESTON SCHOOL  N/A         46  36  68  SW7     29.88F

$$

ORZ508-241510-
SOUTHERN FOOTHILLS OF THE BLUES

CITY            SKY/WX      TMP DP  RH  WIND    PRES   REMARKS
LEXINGTON       CLOUDY      46  43  89  SE7     29.87F
#AJAX           N/A         41  35  79  E1      29.98F
#CONDON SCHOOL  N/A         42  39  89  S8      29.80S
#CONDON 5W      N/A         39  36  89  SE20G29 29.78F WCI 29
#FOSSIL SCHOOL  N/A         43  39  86  CALM    29.79F
#HEPPNER EOC    N/A         44  39  82  SE10    29.78F
#HEPPNER 4NE    N/A         43  39  86  SE7     29.85F
#LEXINGTON 2SE  N/A         48  41  77  SE16    29.81F WCI 42
#OLEX 4N        N/A         42  40  93  E2      29.85S
#RUGGS 5NE      N/A         41  39  93  N7      30.01S
#RUGGS 2SW      N/A         42  37  82  S18G30  29.86F WCI 34

$$

ORZ502-503-241510-
BLUE MOUNTAINS

CITY            SKY/WX      TMP DP  RH  WIND    PRES   REMARKS
MEACHAM         LGT RAIN    37  33  85  CALM    29.88F FOG
#BATTLE MTN DOT N/A         35  34  96  SE10    N/A
#GREENHORN 9SW  N/A         32  N/A N/A CALM    26.13F
#HARDMAN 10S    N/A         34  33  96  SE9     29.99F
#HEPPNER 15SE   N/A         36  34  92  NW3     29.88F
#LADD CYN SMT   N/A         42  26  53  SE12    N/A    WCI 35
#LADD CREEK ODOTN/A         45  27  49  SW8     N/A
#LONG CREEK HS  N/A         40  38  92  SW14G30 N/A    WCI 32
#N POWDER DOT   N/A         42  30  62  SE20    N/A    WCI 33
#PIKES PEAK     N/A         42  33  70  W23G30  27.99S WCI 32
#TOLLGATE       N/A         32  30  92  S6      29.75F
#TROY SCHOOL    N/A         39  35  85  CALM    29.83S
#UKIAH          N/A         38  36  92  CALM    29.85S
#WESTON 4E      N/A         40  36  85  E13     29.86S WCI 32
$$

ORZ505-241510-
JOHN DAY BASIN

CITY            SKY/WX      TMP DP  RH  WIND    PRES   REMARKS
JOHN DAY        LGT RAIN    42  37  82  E3G24   29.92F
#JOHN DAY KJDY  N/A         42  N/A N/A NE2     29.53F
#ANTELOPE 9ESE  N/A         45  43  93  CALM    N/A
#DAYVILLE SCHOOLN/A         42  37  82  S3      29.90R
#MITCHELL       N/A         43  38  82  CALM    30.02S
#MITCHELL 8NW   N/A         40  35  82  SW7     29.67S
#MONUMENT HS    N/A         44  41  89  CALM    29.87S
#MT. VERNON 5SE N/A         38  35  89  NE2     29.86S
#SPRAY SCHOOL   N/A         46  N/A N/A CALM    N/A
#WINLOCK        N/A         42  39  89  S3      29.84F
$$

ORZ506-241510-
OCHOCO AND JOHN DAY HIGHLANDS

CITY            SKY/WX      TMP DP  RH  WIND    PRES   REMARKS
#HORSE RIDGE DO N/A         38  32  79  SE23    N/A    WCI 27
#PAULINA SCHOOL N/A         39  34  82  S8      N/A
#PINE MTN OBS   N/A         29  28  96  SE14G28 N/A    WCI 18
#PRAIRIE CITY   N/A         40  36  85  CALM    30.07F
#SENECA         N/A         35  N/A N/A N7      N/A
#SENECA 9NW     N/A         35  34  96  E1      29.93F
$$

ORZ049-241510-
GRANDE RONDE VALLEY

CITY            SKY/WX      TMP DP  RH  WIND    PRES   REMARKS
LA GRANDE       CLOUDY      46  30  53  S12     29.90S WCI 40
#COVE           N/A         45  39  79  SE3     29.93R
#COVE SCHOOL    N/A         45  37  73  E14     29.92S WCI 39
#COVE 6NW       N/A         46  36  68  S7      29.93S
#ELGIN 3N       N/A         37  31  79  E1      29.90S
#ELGIN 1E       N/A         38  34  85  CALM    N/A
#IMBLER SCHOOL  N/A         43  35  73  CALM    29.88S
#ISLAND CITY 4N N/A         46  45  96  CALM    29.82F
#UNION 1S       N/A         45  36  70  S8      29.94R
$$

ORZ050-241510-
WALLOWA COUNTY

CITY            SKY/WX      TMP DP  RH  WIND    PRES   REMARKS
JOSEPH AIRPORT  MOCLDY      37  28  70  SE3     29.89S
#IMNAHA SCHOOL  N/A         38  34  85  CALM    29.92F
#IMNAHA 10S     N/A         49  29  46  SW10G24 29.91S
#JOSEPH 3N      N/A         37  26  64  W1      29.92F
#JOSEPH 3W      N/A         42  30  62  SW3     29.73F
#LOSTINE        N/A         34  32  92  CALM    29.76F
#LOSTINE 3SE    N/A         35  31  85  N1      29.94F
#MT HOWARD 8000 N/A         26  23  88  S21G39  29.81R WCI 12
#PROMISE 1S     N/A         38  34  85  CALM    30.03R
#WALLOWA SCHOOL N/A         34  32  92  CALM    29.89F



$$



USA.gov is the U.S. government's official web portal to all federal, state and local government web resources and services.